Flag for Germany Weather past 2 weeks in Zeitz, Saxony-Anhalt, Germany

Now
35 °F

Overcast.


Feels Like: 31 °F
Forecast: 35 / 46 °F
Wind: 5 mph from West

Location: Gera-Leumnitz

Current Time: Mar 5, 2015 at 4:00:43 AM

Latest Report: Mar 5, 2015 at 3:00 AM


Visibility: 19 mi

Pressure: 30.36 "Hg

Humidity: 84%

Dew point: 31 °F

Location of ZeitzLocation

Historic Weather in Zeitz — Graph

°F

Zeitz temperature yesterday

Maximum temperature yesterday: 40 °F (at 5:00 PM)
Minimum temperature yesterday: 31 °F (at 6:00 AM)
Average temperature yesterday: 36 °F

Past Weeks' High & Low Weather Summary

 TemperatureHumidityPressure
High47 °F (Feb 27, 3:00 PM)98% (Feb 28, 4:00 AM)30.77 "Hg (Feb 28, 4:00 AM)
Low28 °F (Feb 20, 12:00 AM)38% (Feb 27, 4:00 PM)29.44 "Hg (Feb 21, 1:00 PM)
Average36 °F76%29.98 "Hg
* Reported Feb 18 3:00 AM — Mar 5 3:00 AM, Zeitz, Weather by CustomWeather, © 2015

Note: Actual official high and low records may vary slightly from our data, if they occured in-between our weather recording intervals... More about our weather records

Advertising

Zeitz weather history for previous 24 hours

 ConditionsComfort  
Time TempWeatherWind HumidityBarometerVisibility
3:00 AM
Thu, Mar 5
35 °FOvercast.5 mph84%30.36 "Hg19 mi
2:00 AM36 °FDrizzle. Overcast.8 mph81%30.35 "Hg16 mi
1:00 AM36 °FOvercast.6 mph75%30.33 "Hg25 mi
12:00 AM36 °FOvercast.7 mph74%30.32 "Hg31 mi
11:00 PM
Wed, Mar 4
36 °FOvercast.8 mph75%30.31 "Hg34 mi
10:00 PM35 °FPassing clouds.6 mph81%30.30 "Hg22 mi
9:00 PM36 °FOvercast.5 mph75%30.30 "Hg34 mi
8:00 PM36 °FPassing clouds.5 mph75%30.30 "Hg34 mi
7:00 PM38 °FOvercast.5 mph68%30.28 "Hg37 mi
6:00 PM40 °FOvercast.6 mph61%30.27 "Hg40 mi
5:00 PM40 °FOvercast.6 mph62%30.26 "Hg43 mi
4:00 PM40 °FOvercast.6 mph66%30.26 "Hg43 mi
3:00 PM40 °FOvercast.7 mph62%30.25 "Hg37 mi
2:00 PM39 °FOvercast.8 mph63%30.25 "Hg37 mi
1:00 PM39 °FOvercast.7 mph63%30.24 "Hg37 mi
12:00 PM39 °FPartly sunny.8 mph65%30.24 "Hg25 mi
11:00 AM38 °FPartly sunny.7 mph74%30.24 "Hg25 mi
10:00 AM36 °FPassing clouds.9 mph78%30.23 "Hg25 mi
9:00 AM34 °FPassing clouds.7 mph85%30.21 "Hg22 mi
8:00 AM32 °FPassing clouds.5 mph91%30.20 "Hg19 mi
7:00 AM32 °FPassing clouds.5 mph95%30.18 "Hg12 mi
6:00 AM31 °FLow clouds.6 mph98%30.16 "Hg11 mi
5:00 AM34 °FLight snow. Passing clouds.6 mph91%30.13 "Hg6 mi
4:00 AM34 °FPassing clouds.3 mph90%30.10 "Hg12 mi
Weather by CustomWeather, © 2015

See weather overviewHow to use our weather pages